TimeCDT,TemperatureF,Dew PointF,Humidity,Sea Level PressureIn,VisibilityMPH,Wind Direction,Wind SpeedMPH,Gust SpeedMPH,PrecipitationIn,Events,Conditions,WindDirDegrees,DateUTC
12:55 AM,54.0,48.9,83,29.93,10.0,NE,15.0,25.3,N/A,,Overcast,50,2013-10-04 05:55:00
1:55 AM,54.0,48.9,83,29.91,10.0,NE,18.4,25.3,N/A,,Overcast,40,2013-10-04 06:55:00
2:55 AM,54.0,48.9,83,29.94,10.0,ENE,15.0,25.3,N/A,,Overcast,60,2013-10-04 07:55:00
3:55 AM,54.0,48.9,83,29.91,10.0,ENE,13.8,-,N/A,,Overcast,70,2013-10-04 08:55:00
4:55 AM,54.0,48.9,83,29.91,10.0,NE,15.0,24.2,N/A,,Overcast,50,2013-10-04 09:55:00
5:55 AM,53.1,50.0,89,29.92,10.0,ENE,13.8,-,N/A,,Overcast,60,2013-10-04 10:55:00
6:05 AM,53.6,50.0,88,29.91,10.0,ENE,15.0,20.7,N/A,,Overcast,60,2013-10-04 11:05:00
6:55 AM,53.1,50.0,89,29.93,10.0,NE,15.0,-,0.00,,Overcast,40,2013-10-04 11:55:00
7:45 AM,51.8,50.0,94,29.91,2.5,NE,18.4,25.3,0.11,Rain,Heavy Rain,40,2013-10-04 12:45:00
7:55 AM,52.0,50.0,93,29.92,5.0,NE,17.3,-,0.15,Rain,Light Rain,40,2013-10-04 12:55:00
8:03 AM,51.8,50.0,94,29.91,8.0,NE,15.0,26.5,0.00,Rain,Light Rain,40,2013-10-04 13:03:00
8:17 AM,51.8,50.0,94,29.91,10.0,NE,17.3,24.2,0.01,Rain,Light Rain,40,2013-10-04 13:17:00
8:51 AM,51.8,50.0,94,29.90,10.0,NE,18.4,-,0.01,,Overcast,40,2013-10-04 13:51:00
8:55 AM,52.0,50.0,93,29.90,10.0,NE,20.7,26.5,0.01,,Overcast,40,2013-10-04 13:55:00
9:42 AM,51.8,48.2,88,29.88,10.0,NE,20.7,27.6,0.00,Rain,Light Rain,50,2013-10-04 14:42:00
9:55 AM,52.0,48.9,89,29.91,10.0,NE,18.4,27.6,0.00,,Overcast,50,2013-10-04 14:55:00
10:30 AM,51.8,48.2,88,29.90,10.0,NE,20.7,27.6,0.00,Rain,Light Rain,50,2013-10-04 15:30:00
10:55 AM,52.0,50.0,93,29.88,5.0,NE,24.2,31.1,0.03,Rain,Rain,50,2013-10-04 15:55:00
11:55 AM,53.1,50.0,89,29.88,10.0,ENE,17.3,25.3,0.01,,Overcast,70,2013-10-04 16:55:00
12:55 PM,54.0,50.0,86,29.86,10.0,East,16.1,26.5,N/A,,Overcast,80,2013-10-04 17:55:00
1:55 PM,55.0,51.1,86,29.82,10.0,ENE,23.0,28.8,0.00,,Overcast,70,2013-10-04 18:55:00
2:55 PM,55.9,51.1,84,29.80,10.0,East,15.0,-,N/A,,Overcast,80,2013-10-04 19:55:00
3:55 PM,55.9,50.0,80,29.76,10.0,ENE,17.3,31.1,N/A,,Overcast,70,2013-10-04 20:55:00
4:55 PM,55.0,51.1,86,29.74,10.0,East,19.6,27.6,0.00,,Overcast,80,2013-10-04 21:55:00
5:55 PM,55.0,51.1,86,29.71,10.0,ENE,23.0,27.6,0.00,,Overcast,70,2013-10-04 22:55:00
6:55 PM,55.9,51.1,84,29.66,10.0,East,25.3,40.3,N/A,,Overcast,80,2013-10-04 23:55:00
7:47 PM,55.4,51.8,88,29.66,2.5,East,17.3,31.1,0.25,Rain,Heavy Rain,80,2013-10-05 00:47:00
7:55 PM,55.0,52.0,89,29.65,6.0,East,18.4,29.9,0.29,Rain,Light Rain,80,2013-10-05 00:55:00
8:55 PM,55.9,52.0,87,29.64,10.0,East,24.2,32.2,0.01,,Overcast,80,2013-10-05 01:55:00
9:52 PM,55.4,53.6,94,29.63,9.0,East,21.9,35.7,0.02,Rain,Light Rain,90,2013-10-05 02:52:00
9:55 PM,55.9,53.1,90,29.64,10.0,East,21.9,35.7,0.02,,Overcast,90,2013-10-05 02:55:00
10:35 PM,57.2,53.6,88,29.62,10.0,East,17.3,25.3,N/A,,Overcast,100,2013-10-05 03:35:00
10:55 PM,55.9,51.1,84,29.65,10.0,South,17.3,24.2,0.00,,Overcast,190,2013-10-05 03:55:00
11:02 PM,53.6,48.2,82,29.64,10.0,South,12.7,24.2,0.00,Rain,Light Rain,180,2013-10-05 04:02:00
11:55 PM,48.9,44.1,83,29.67,10.0,SSE,11.5,24.2,0.00,,Overcast,150,2013-10-05 04:55:00